Skip Page Navigation
NASA JPL Caltech
NASA Logo - Jet Propulsion Laboratory + View the NASA Portal
+ Near-Earth Object (NEO) Program
Search JPL
JPL Home Earth Solar System Stars & Galaxies Technology
JPL Solar System Dynamics
BODIES ORBITS EPHEMERIDES TOOLS PHYSICAL DATA DISCOVERY FAQ SITE MAP
JPL Small-Body Database Browser
Search: [ help ]  
27466 Cargibaysal (2000 GJ65)
Classification: Main-belt Asteroid          SPK-ID: 2027466
Ephemeris | Orbit Diagram | Orbital Elements | Physical Parameters | Discovery Circumstances | Close-Approach Data ]

[ show orbit diagram ]
Orbital Elements at Epoch 2457000.5 (2014-Dec-09.0) TDB
Reference: JPL 6 (heliocentric ecliptic J2000)
 Element Value Uncertainty (1-sigma)   Units 
e .1366764524503198 8.3262e-08  
a 2.554123947749031 1.8981e-08 AU
q 2.205035347452288 2.183e-07 AU
i 9.422694803413124 1.0031e-05 deg
node 197.5359280546871 3.1308e-05 deg
peri 240.983592389436 5.0456e-05 deg
M 330.6135919069445 3.8072e-05 deg
tp 2457122.204149332812
(2015-Apr-09.70414933)
0.00015817 JED
period 1490.944167829965
4.08
1.662e-05
4.55e-08
d
yr
n .2414577338090211 2.6916e-09 deg/d
Q 2.903212548045775 2.1575e-08 AU
  Orbit Determination Parameters
   # obs. used (total)      877  
   data-arc span      10661 days (29.19 yr)  
   first obs. used      1985-08-23  
   last obs. used      2014-10-31  
   planetary ephem.      DE431  
   SB-pert. ephem.      SB431-BIG16  
   condition code      0  
   fit RMS      .48108  
   data source      ORB  
   producer      Otto Matic  
   solution date      2014-Nov-10 13:51:16  

Additional Information
 Earth MOID = 1.23686 AU 
 T_jup = 3.407 
[ show covariance matrix ]

Ephemeris | Orbit Diagram | Orbital Elements | Physical Parameters | Discovery Circumstances | Close-Approach Data ]

Physical Parameter Table
Parameter Symbol Value Units Sigma Reference Notes
absolute magnitude H 14.2 mag n/a MPO250475  

27466 Cargibaysal           Discovered 2000 Apr. 5 by the Lincoln Laboratory Near-Earth Asteroid Research Team at Socorro.
Cargi Baysal mentored a finalist in the 2011 Broadcom MASTERS, a math and science competition for middle-school students. He teaches at the School of Science and Technology, Corpus Christi, Texas.
NOTE: some special characters may not display properly (any characters within {} are an attempt to place the proper accent above a character)
Reference: 20111210/MPCPages.arcLast Updated: 2011-12-12

[ show close-approach data ]
Alternate Designations
 2000 GJ65 = 1985 QS3 = 1998 XT81 
Ephemeris | Orbit Diagram | Orbital Elements | Physical Parameters | Discovery Circumstances | Close-Approach Data ]
ABOUT SSD CREDITS/AWARDS PRIVACY/COPYRIGHT GLOSSARY LINKS
FirstGov 2014-Dec-21 13:33 UT
(server date/time)  
NASA Home Page
Site Manager:   Donald K. Yeomans
Webmaster  Alan B. Chamberlin